Time,TemperatureF,DewpointF,PressureIn,WindDirection,WindDirectionDegrees,WindSpeedMPH,WindSpeedGustMPH,Humidity,HourlyPrecipIn,Conditions,Clouds,dailyrainin,SoftwareType,DateUTC
2013-04-15 00:00:00,36.6,27.8,30.30,WNW,302,0.0,0.0,70,0.00,,-RA,0.00,VWS V14.01,2013-04-15 04:00:00,
2013-04-15 00:05:00,36.6,28.1,30.30,WNW,302,0.0,0.0,71,0.00,,BKN090,0.00,VWS V14.01,2013-04-15 04:05:00,
2013-04-15 00:10:00,36.5,28.0,30.30,WNW,302,0.0,1.0,71,0.00,,BKN090,0.00,VWS V14.01,2013-04-15 04:10:00,
2013-04-15 00:15:00,36.4,27.9,30.30,WNW,302,0.0,0.0,71,0.00,,BKN090,0.00,VWS V14.01,2013-04-15 04:15:00,
2013-04-15 00:20:00,36.4,28.2,30.31,WNW,302,0.0,0.0,72,0.00,,BKN090,0.00,VWS V14.01,2013-04-15 04:20:00,
2013-04-15 00:25:00,36.4,28.2,30.30,WNW,302,1.0,2.0,72,0.00,,BKN090,0.00,VWS V14.01,2013-04-15 04:25:00,
2013-04-15 00:30:00,36.4,27.9,30.30,NW,304,0.0,2.0,71,0.00,,BKN090,0.00,VWS V14.01,2013-04-15 04:30:00,
2013-04-15 00:35:00,36.5,27.7,30.30,NW,304,0.0,0.0,70,0.00,,BKN090,0.00,VWS V14.01,2013-04-15 04:35:00,
2013-04-15 00:40:00,36.6,28.1,30.30,NW,304,0.0,0.0,71,0.00,,BKN090,0.00,VWS V14.01,2013-04-15 04:40:00,
2013-04-15 00:45:00,36.6,28.4,30.30,NW,304,0.0,0.0,72,0.00,,BKN090,0.00,VWS V14.01,2013-04-15 04:45:00,
2013-04-15 00:50:00,36.5,27.7,30.30,NW,304,1.0,1.0,70,0.00,,BKN090,0.00,VWS V14.01,2013-04-15 04:50:00,
2013-04-15 00:55:00,36.7,27.9,30.31,NW,304,0.0,3.0,70,0.00,,BKN090,0.00,VWS V14.01,2013-04-15 04:55:00,
2013-04-15 01:00:00,36.9,27.7,30.31,NW,304,0.0,3.0,69,0.00,,BKN090,0.00,VWS V14.01,2013-04-15 05:00:00,
2013-04-15 01:05:00,37.0,28.1,30.31,NW,304,0.0,0.0,70,0.00,,BKN250,0.00,VWS V14.01,2013-04-15 05:05:00,
2013-04-15 01:10:00,37.0,27.8,30.31,NW,304,0.0,2.0,69,0.00,,BKN250,0.00,VWS V14.01,2013-04-15 05:10:00,
2013-04-15 01:15:00,36.9,28.0,30.31,NW,304,0.0,1.0,70,0.00,,BKN250,0.00,VWS V14.01,2013-04-15 05:15:00,
2013-04-15 01:20:00,36.8,28.3,30.31,NW,304,0.0,1.0,71,0.00,,BKN250,0.00,VWS V14.01,2013-04-15 05:20:00,
2013-04-15 01:25:00,36.6,28.1,30.31,NW,304,0.0,0.0,71,0.00,,BKN250,0.00,VWS V14.01,2013-04-15 05:25:00,
2013-04-15 01:30:00,36.4,28.2,30.31,NW,304,0.0,1.0,72,0.00,,BKN250,0.00,VWS V14.01,2013-04-15 05:30:00,
2013-04-15 01:35:00,36.2,28.4,30.31,NW,304,0.0,1.0,73,0.00,,BKN250,0.00,VWS V14.01,2013-04-15 05:35:00,
2013-04-15 01:40:00,35.9,28.1,30.31,NW,304,0.0,1.0,73,0.00,,BKN250,0.00,VWS V14.01,2013-04-15 05:40:00,
2013-04-15 01:45:00,35.7,27.9,30.31,NW,304,0.0,0.0,73,0.00,,BKN250,0.00,VWS V14.01,2013-04-15 05:45:00,
2013-04-15 01:50:00,35.6,27.8,30.31,NW,304,0.0,0.0,73,0.00,,BKN250,0.00,VWS V14.01,2013-04-15 05:50:00,
2013-04-15 01:55:00,35.5,28.0,30.31,NW,304,0.0,0.0,74,0.00,,BKN250,0.00,VWS V14.01,2013-04-15 05:55:00,
2013-04-15 02:00:00,35.3,28.2,30.31,NW,304,0.0,0.0,75,0.00,,BKN250,0.00,VWS V14.01,2013-04-15 06:00:00,
2013-04-15 02:05:00,35.1,28.0,30.31,NW,304,0.0,0.0,75,0.00,,BKN200,0.00,VWS V14.01,2013-04-15 06:05:00,
2013-04-15 02:10:00,35.0,27.9,30.31,NW,304,0.0,0.0,75,0.00,,BKN200,0.00,VWS V14.01,2013-04-15 06:10:00,
2013-04-15 02:15:00,34.7,27.9,30.32,NW,304,0.0,0.0,76,0.00,,BKN200,0.00,VWS V14.01,2013-04-15 06:15:00,
2013-04-15 02:20:00,34.6,28.1,30.32,NW,304,0.0,0.0,77,0.00,,BKN200,0.00,VWS V14.01,2013-04-15 06:20:00,
2013-04-15 02:25:00,34.4,28.0,30.32,NW,304,0.0,0.0,77,0.00,,BKN200,0.00,VWS V14.01,2013-04-15 06:25:00,
2013-04-15 02:30:00,34.2,28.1,30.32,NW,304,0.0,0.0,78,0.00,,BKN200,0.00,VWS V14.01,2013-04-15 06:30:00,
2013-04-15 02:35:00,34.1,28.0,30.32,NW,304,0.0,1.0,78,0.00,,BKN200,0.00,VWS V14.01,2013-04-15 06:35:00,
2013-04-15 02:40:00,33.9,27.8,30.31,NW,304,0.0,1.0,78,0.00,,BKN200,0.00,VWS V14.01,2013-04-15 06:40:00,
2013-04-15 02:45:00,33.7,27.9,30.31,NW,304,0.0,1.0,79,0.00,,BKN200,0.00,VWS V14.01,2013-04-15 06:45:00,
2013-04-15 02:50:00,33.6,27.8,30.31,NW,304,0.0,1.0,79,0.00,,BKN200,0.00,VWS V14.01,2013-04-15 06:50:00,
2013-04-15 02:55:00,33.5,27.7,30.31,NW,304,0.0,0.0,79,0.00,,BKN200,0.00,VWS V14.01,2013-04-15 06:55:00,
2013-04-15 03:00:00,33.4,27.9,30.31,NW,304,0.0,0.0,80,0.00,,BKN200,0.00,VWS V14.01,2013-04-15 07:00:00,
2013-04-15 03:05:00,33.4,27.9,30.31,NW,304,0.0,0.0,80,0.00,,BKN200,0.00,VWS V14.01,2013-04-15 07:05:00,
2013-04-15 03:10:00,34.9,27.8,30.32,NW,304,0.0,0.0,75,0.00,,OVC150,0.00,VWS V14.01,2013-04-15 07:10:00,
2013-04-15 03:20:00,34.5,28.0,30.32,NW,304,0.0,0.0,77,0.00,,OVC150,0.00,VWS V14.01,2013-04-15 07:20:00,
2013-04-15 03:30:00,34.2,28.1,30.31,NW,304,0.0,0.0,78,0.00,,OVC150,0.00,VWS V14.01,2013-04-15 07:30:00,
2013-04-15 03:40:00,33.8,27.7,30.31,NW,304,0.0,1.0,78,0.00,,OVC150,0.00,VWS V14.01,2013-04-15 07:40:00,
2013-04-15 03:41:00,33.5,27.7,30.32,NW,304,0.0,0.0,79,0.00,,BKN200,0.00,VWS V14.01,2013-04-15 07:41:00,
2013-04-15 03:46:00,33.6,27.8,30.32,NW,304,0.0,2.0,79,0.00,,BKN200,0.00,VWS V14.01,2013-04-15 07:46:00,
2013-04-15 03:48:00,33.7,27.9,30.32,NW,304,0.0,2.0,79,0.00,,BKN200,0.00,VWS V14.01,2013-04-15 07:48:00,
2013-04-15 03:50:00,33.8,28.0,30.32,NW,304,0.0,2.0,79,0.00,,BKN200,0.00,VWS V14.01,2013-04-15 07:50:00,
2013-04-15 03:55:00,33.9,28.1,30.33,NW,304,0.0,0.0,79,0.00,,BKN200,0.00,VWS V14.01,2013-04-15 07:55:00,
2013-04-15 04:00:00,33.9,28.1,30.33,NW,304,0.0,1.0,79,0.00,,BKN200,0.00,VWS V14.01,2013-04-15 08:00:00,
2013-04-15 04:05:00,33.8,29.8,30.33,NW,304,0.0,1.0,85,0.00,,BKN250,0.00,VWS V14.01,2013-04-15 08:05:00,
2013-04-15 04:10:00,33.6,27.8,30.33,NW,304,0.0,1.0,79,0.00,,BKN250,0.00,VWS V14.01,2013-04-15 08:10:00,
2013-04-15 04:15:00,33.6,27.8,30.33,NW,304,0.0,0.0,79,0.00,,BKN250,0.00,VWS V14.01,2013-04-15 08:15:00,
2013-04-15 04:20:00,33.6,27.8,30.34,NW,304,0.0,0.0,79,0.00,,BKN250,0.00,VWS V14.01,2013-04-15 08:20:00,
2013-04-15 04:25:00,33.7,27.9,30.34,NW,304,0.0,1.0,79,0.00,,BKN250,0.00,VWS V14.01,2013-04-15 08:25:00,
2013-04-15 04:30:00,33.7,27.9,30.34,NW,304,0.0,1.0,79,0.00,,BKN250,0.00,VWS V14.01,2013-04-15 08:30:00,
2013-04-15 04:35:00,33.7,27.9,30.34,NW,304,0.0,1.0,79,0.00,,BKN250,0.00,VWS V14.01,2013-04-15 08:35:00,
2013-04-15 04:40:00,33.7,27.9,30.34,NW,304,0.0,1.0,79,0.00,,BKN250,0.00,VWS V14.01,2013-04-15 08:40:00,
2013-04-15 04:45:00,33.6,28.1,30.34,NW,304,0.0,1.0,80,0.00,,BKN250,0.00,VWS V14.01,2013-04-15 08:45:00,
2013-04-15 04:50:00,33.5,28.0,30.34,NW,304,0.0,1.0,80,0.00,,BKN250,0.00,VWS V14.01,2013-04-15 08:50:00,
2013-04-15 04:55:00,33.3,28.1,30.34,NW,304,0.0,0.0,81,0.00,,BKN250,0.00,VWS V14.01,2013-04-15 08:55:00,
2013-04-15 05:00:00,33.2,28.0,30.34,NW,304,0.0,0.0,81,0.00,,BKN250,0.00,VWS V14.01,2013-04-15 09:00:00,
2013-04-15 05:05:00,33.2,28.0,30.34,NW,304,0.0,0.0,81,0.00,,BKN200,0.00,VWS V14.01,2013-04-15 09:05:00,
2013-04-15 05:10:00,33.1,27.9,30.34,NW,304,0.0,0.0,81,0.00,,BKN200,0.00,VWS V14.01,2013-04-15 09:10:00,
2013-04-15 05:15:00,33.1,28.2,30.34,NW,304,0.0,1.0,82,0.00,,BKN200,0.00,VWS V14.01,2013-04-15 09:15:00,
2013-04-15 05:20:00,33.1,28.2,30.35,NW,304,0.0,1.0,82,0.00,,BKN200,0.00,VWS V14.01,2013-04-15 09:20:00,
2013-04-15 05:25:00,33.2,28.3,30.35,NW,304,0.0,2.0,82,0.00,,BKN200,0.00,VWS V14.01,2013-04-15 09:25:00,
2013-04-15 05:30:00,33.3,28.4,30.35,NW,304,0.0,2.0,82,0.00,,BKN200,0.00,VWS V14.01,2013-04-15 09:30:00,
2013-04-15 05:35:00,33.3,28.4,30.36,NW,304,0.0,0.0,82,0.00,,BKN200,0.00,VWS V14.01,2013-04-15 09:35:00,
2013-04-15 05:40:00,33.3,28.4,30.36,NW,304,0.0,0.0,82,0.00,,BKN200,0.00,VWS V14.01,2013-04-15 09:40:00,
2013-04-15 05:45:00,33.3,28.4,30.36,NW,304,0.0,1.0,82,0.00,,BKN200,0.00,VWS V14.01,2013-04-15 09:45:00,
2013-04-15 05:50:00,33.3,28.4,30.37,NW,304,0.0,1.0,82,0.00,,BKN200,0.00,VWS V14.01,2013-04-15 09:50:00,
2013-04-15 05:55:00,33.2,28.6,30.37,NW,304,0.0,1.0,83,0.00,,BKN200,0.00,VWS V14.01,2013-04-15 09:55:00,
2013-04-15 06:00:00,33.0,28.4,30.38,WNW,302,0.0,1.0,83,0.00,,BKN200,0.00,VWS V14.01,2013-04-15 10:00:00,
2013-04-15 06:05:00,33.0,28.4,30.38,WNW,302,0.0,1.0,83,0.00,,BKN200,0.00,VWS V14.01,2013-04-15 10:05:00,
2013-04-15 06:10:00,33.0,28.4,30.38,WNW,302,0.0,1.0,83,0.00,,BKN200,0.00,VWS V14.01,2013-04-15 10:10:00,
2013-04-15 06:15:00,32.9,28.3,30.39,WNW,302,0.0,1.0,83,0.00,,BKN200,0.00,VWS V14.01,2013-04-15 10:15:00,
2013-04-15 06:20:00,32.8,28.2,30.39,WNW,302,0.0,1.0,83,0.00,,BKN200,0.00,VWS V14.01,2013-04-15 10:20:00,
2013-04-15 06:25:00,32.8,28.5,30.39,WNW,302,0.0,0.0,84,0.00,,BKN200,0.00,VWS V14.01,2013-04-15 10:25:00,
2013-04-15 06:30:00,32.8,28.5,30.40,WNW,302,0.0,1.0,84,0.00,,BKN200,0.00,VWS V14.01,2013-04-15 10:30:00,
2013-04-15 06:35:00,32.8,28.5,30.40,WNW,302,0.0,0.0,84,0.00,,BKN200,0.00,VWS V14.01,2013-04-15 10:35:00,
2013-04-15 06:40:00,32.8,28.8,30.40,WNW,302,0.0,0.0,85,0.00,,BKN200,0.00,VWS V14.01,2013-04-15 10:40:00,
2013-04-15 06:45:00,32.9,28.9,30.41,WNW,302,0.0,0.0,85,0.00,,BKN200,0.00,VWS V14.01,2013-04-15 10:45:00,
2013-04-15 06:50:00,33.0,29.0,30.41,WNW,302,0.0,0.0,85,0.00,,BKN200,0.00,VWS V14.01,2013-04-15 10:50:00,
2013-04-15 06:55:00,33.2,29.2,30.41,WNW,302,0.0,0.0,85,0.00,,BKN200,0.00,VWS V14.01,2013-04-15 10:55:00,
2013-04-15 07:00:00,33.4,29.7,30.41,WNW,302,0.0,0.0,86,0.00,,BKN200,0.00,VWS V14.01,2013-04-15 11:00:00,
2013-04-15 07:05:00,33.7,29.7,30.42,WNW,302,0.0,0.0,85,0.00,,BKN210,0.00,VWS V14.01,2013-04-15 11:05:00,
2013-04-15 07:10:00,34.1,30.1,30.42,WNW,302,0.0,0.0,85,0.00,,BKN210,0.00,VWS V14.01,2013-04-15 11:10:00,
2013-04-15 07:15:00,34.6,30.6,30.42,WNW,302,0.0,1.0,85,0.00,,BKN210,0.00,VWS V14.01,2013-04-15 11:15:00,
2013-04-15 07:20:00,35.2,30.6,30.42,WNW,302,0.0,2.0,83,0.00,,BKN210,0.00,VWS V14.01,2013-04-15 11:20:00,
2013-04-15 07:25:00,35.9,31.0,30.42,WNW,302,0.0,1.0,82,0.00,,BKN210,0.00,VWS V14.01,2013-04-15 11:25:00,
2013-04-15 07:30:00,36.7,31.1,30.43,WNW,302,0.0,2.0,80,0.00,,BKN210,0.00,VWS V14.01,2013-04-15 11:30:00,
2013-04-15 07:35:00,37.4,31.8,30.43,WNW,302,0.0,0.0,80,0.00,,BKN210,0.00,VWS V14.01,2013-04-15 11:35:00,
2013-04-15 07:40:00,38.0,31.8,30.43,WNW,302,0.0,1.0,78,0.00,,BKN210,0.00,VWS V14.01,2013-04-15 11:40:00,
2013-04-15 07:45:00,38.7,32.1,30.44,WNW,302,0.0,1.0,77,0.00,,BKN210,0.00,VWS V14.01,2013-04-15 11:45:00,
2013-04-15 07:50:00,39.2,32.3,30.43,NW,311,1.0,2.0,76,0.00,,BKN210,0.00,VWS V14.01,2013-04-15 11:50:00,
2013-04-15 07:55:00,39.7,31.8,30.43,NW,311,0.0,1.0,73,0.00,,BKN210,0.00,VWS V14.01,2013-04-15 11:55:00,
2013-04-15 08:00:00,40.2,32.2,30.44,NW,311,0.0,1.0,73,0.00,,BKN210,0.00,VWS V14.01,2013-04-15 12:00:00,
2013-04-15 08:05:00,40.5,32.2,30.44,NW,311,0.0,1.0,72,0.00,,BKN230,0.00,VWS V14.01,2013-04-15 12:05:00,
2013-04-15 08:10:00,40.9,32.2,30.44,NW,311,0.0,2.0,71,0.00,,BKN230,0.00,VWS V14.01,2013-04-15 12:10:00,
2013-04-15 08:15:00,41.4,32.7,30.44,North,5,0.0,4.0,71,0.00,,BKN230,0.00,VWS V14.01,2013-04-15 12:15:00,
2013-04-15 08:20:00,41.8,32.8,30.44,North,360,2.0,4.0,70,0.00,,BKN230,0.00,VWS V14.01,2013-04-15 12:20:00,
2013-04-15 08:25:00,42.2,32.8,30.44,North,351,0.0,2.0,69,0.00,,BKN230,0.00,VWS V14.01,2013-04-15 12:25:00,
2013-04-15 08:30:00,42.6,33.2,30.44,NNW,333,0.0,3.0,69,0.00,,BKN230,0.00,VWS V14.01,2013-04-15 12:30:00,
2013-04-15 08:35:00,43.0,33.2,30.43,NNW,333,0.0,1.0,68,0.00,,BKN230,0.00,VWS V14.01,2013-04-15 12:35:00,
2013-04-15 08:40:00,43.6,33.4,30.44,North,360,0.0,1.0,67,0.00,,BKN230,0.00,VWS V14.01,2013-04-15 12:40:00,
2013-04-15 08:45:00,44.0,33.8,30.44,North,360,0.0,1.0,67,0.00,,BKN230,0.00,VWS V14.01,2013-04-15 12:45:00,
2013-04-15 08:50:00,44.4,33.4,30.44,North,360,0.0,1.0,65,0.00,,BKN230,0.00,VWS V14.01,2013-04-15 12:50:00,
2013-04-15 08:55:00,44.8,33.8,30.44,North,360,0.0,1.0,65,0.00,,BKN230,0.00,VWS V14.01,2013-04-15 12:55:00,
2013-04-15 09:00:00,45.1,34.0,30.44,North,360,0.0,2.0,65,0.00,,BKN230,0.00,VWS V14.01,2013-04-15 13:00:00,
2013-04-15 09:05:00,45.5,33.7,30.45,NE,43,0.0,4.0,63,0.00,,BKN230,0.00,VWS V14.01,2013-04-15 13:05:00,
2013-04-15 09:10:00,45.8,33.5,30.45,ENE,62,0.0,4.0,62,0.00,,BKN230,0.00,VWS V14.01,2013-04-15 13:10:00,
2013-04-15 09:15:00,46.0,33.7,30.45,NE,47,0.0,4.0,62,0.00,,BKN230,0.00,VWS V14.01,2013-04-15 13:15:00,
2013-04-15 09:20:00,46.3,33.6,30.45,NE,47,0.0,4.0,61,0.00,,BKN230,0.00,VWS V14.01,2013-04-15 13:20:00,
2013-04-15 09:25:00,46.5,33.4,30.45,SE,134,1.0,4.0,60,0.00,,BKN230,0.00,VWS V14.01,2013-04-15 13:25:00,
2013-04-15 09:30:00,46.5,33.4,30.46,South,169,0.0,7.0,60,0.00,,BKN230,0.00,VWS V14.01,2013-04-15 13:30:00,
2013-04-15 09:35:00,46.6,33.5,30.46,South,176,2.0,7.0,60,0.00,,BKN230,0.00,VWS V14.01,2013-04-15 13:35:00,
2013-04-15 09:40:00,46.6,33.0,30.46,South,176,0.0,7.0,59,0.00,,BKN230,0.00,VWS V14.01,2013-04-15 13:40:00,
2013-04-15 09:45:00,46.7,34.8,30.46,South,176,0.0,4.0,63,0.00,,BKN230,0.00,VWS V14.01,2013-04-15 13:45:00,
2013-04-15 09:50:00,47.2,33.6,30.46,SSE,160,0.0,7.0,59,0.00,,BKN230,0.00,VWS V14.01,2013-04-15 13:50:00,
2013-04-15 09:55:00,47.7,34.5,30.46,ESE,105,0.0,5.0,60,0.00,,BKN230,0.00,VWS V14.01,2013-04-15 13:55:00,
2013-04-15 10:00:00,48.3,35.1,30.46,ESE,105,1.0,5.0,60,0.00,,BKN250,0.00,VWS V14.01,2013-04-15 14:00:00,
2013-04-15 10:05:00,48.9,34.3,30.47,East,101,0.0,4.0,57,0.00,,BKN250,0.00,VWS V14.01,2013-04-15 14:05:00,
2013-04-15 10:10:00,48.9,34.3,30.46,SSE,152,1.0,5.0,57,0.00,,BKN250,0.00,VWS V14.01,2013-04-15 14:10:00,
2013-04-15 10:15:00,48.8,32.9,30.46,SSE,159,1.0,5.0,54,0.00,,BKN250,0.00,VWS V14.01,2013-04-15 14:15:00,
2013-04-15 10:20:00,46.4,34.5,30.45,NE,47,0.0,4.0,63,0.00,,OVC150,0.00,VWS V14.01,2013-04-15 14:20:00,
2013-04-15 10:21:00,48.6,32.7,30.46,SSE,162,1.0,5.0,54,0.00,,BKN250,0.00,VWS V14.01,2013-04-15 14:21:00,
2013-04-15 10:26:00,48.5,32.6,30.46,SSE,167,1.0,5.0,54,0.00,,BKN250,0.00,VWS V14.01,2013-04-15 14:26:00,
2013-04-15 10:30:00,46.5,35.0,30.46,South,169,2.0,7.0,64,0.00,,OVC150,0.00,VWS V14.01,2013-04-15 14:30:00,
2013-04-15 10:31:00,48.5,33.5,30.46,SSE,167,0.0,0.0,56,0.00,,BKN250,0.00,VWS V14.01,2013-04-15 14:31:00,
2013-04-15 10:36:00,48.8,33.8,30.46,SSE,167,0.0,2.0,56,0.00,,BKN250,0.00,VWS V14.01,2013-04-15 14:36:00,
2013-04-15 10:40:00,46.6,33.1,30.46,South,176,1.0,7.0,59,0.00,,OVC150,0.00,VWS V14.01,2013-04-15 14:40:00,
2013-04-15 10:41:00,49.2,35.1,30.46,SSE,167,2.0,2.0,58,0.00,,BKN250,0.00,VWS V14.01,2013-04-15 14:41:00,
2013-04-15 10:46:00,49.4,33.5,30.46,SE,144,0.0,4.0,54,0.00,,BKN250,0.00,VWS V14.01,2013-04-15 14:46:00,
2013-04-15 10:50:00,47.3,33.7,30.46,SSE,160,1.0,7.0,59,0.00,,OVC150,0.00,VWS V14.01,2013-04-15 14:50:00,
2013-04-15 10:52:00,49.7,33.3,30.46,SE,144,0.0,1.0,53,0.00,,BKN250,0.00,VWS V14.01,2013-04-15 14:52:00,
2013-04-15 10:57:00,49.9,34.4,30.46,SE,144,1.0,4.0,55,0.00,,BKN250,0.00,VWS V14.01,2013-04-15 14:57:00,
2013-04-15 11:00:00,48.5,36.1,30.46,ESE,105,2.0,5.0,62,0.00,,OVC150,0.00,VWS V14.01,2013-04-15 15:00:00,
2013-04-15 11:02:00,50.1,33.7,30.46,SE,140,1.0,1.0,53,0.00,,BKN250,0.00,VWS V14.01,2013-04-15 15:02:00,
2013-04-15 11:07:00,50.1,33.7,30.46,SE,138,0.0,4.0,53,0.00,,BKN250,0.00,VWS V14.01,2013-04-15 15:07:00,
2013-04-15 11:10:00,48.9,34.8,30.46,SSE,152,1.0,5.0,58,0.00,,OVC150,0.00,VWS V14.01,2013-04-15 15:10:00,
2013-04-15 11:12:00,50.4,33.5,30.46,SE,138,0.0,0.0,52,0.00,,BKN250,0.00,VWS V14.01,2013-04-15 15:12:00,
2013-04-15 11:17:00,50.6,32.2,30.46,SSW,212,1.0,3.0,49,0.00,,BKN250,0.00,VWS V14.01,2013-04-15 15:17:00,
2013-04-15 11:20:00,48.6,32.7,30.46,SSE,162,1.0,5.0,54,0.00,,OVC150,0.00,VWS V14.01,2013-04-15 15:20:00,
2013-04-15 11:22:00,50.8,32.8,30.46,WNW,299,0.0,3.0,50,0.00,,BKN250,0.00,VWS V14.01,2013-04-15 15:22:00,
2013-04-15 11:27:00,51.0,34.5,30.46,WNW,298,0.0,3.0,53,0.00,,BKN250,0.00,VWS V14.01,2013-04-15 15:27:00,
2013-04-15 11:30:00,48.5,33.5,30.46,SSE,167,0.0,5.0,56,0.00,,OVC150,0.00,VWS V14.01,2013-04-15 15:30:00,
2013-04-15 11:32:00,51.3,33.3,30.45,SSW,204,2.0,3.0,50,0.00,,BKN250,0.00,VWS V14.01,2013-04-15 15:32:00,
2013-04-15 11:37:00,51.4,34.9,30.45,South,170,1.0,7.0,53,0.00,,BKN250,0.00,VWS V14.01,2013-04-15 15:37:00,
2013-04-15 11:40:00,49.2,35.1,30.46,SSE,167,1.0,2.0,58,0.00,,OVC150,0.00,VWS V14.01,2013-04-15 15:40:00,
2013-04-15 11:42:00,51.6,33.1,30.45,East,89,1.0,6.0,49,0.00,,BKN250,0.00,VWS V14.01,2013-04-15 15:42:00,
2013-04-15 11:47:00,51.8,33.8,30.45,NE,51,0.0,6.0,50,0.00,,BKN250,0.00,VWS V14.01,2013-04-15 15:47:00,
2013-04-15 11:50:00,49.7,33.3,30.46,SE,144,1.0,4.0,53,0.00,,OVC150,0.00,VWS V14.01,2013-04-15 15:50:00,
2013-04-15 11:52:00,52.2,33.1,30.45,SE,146,2.0,6.0,48,0.00,,BKN250,0.00,VWS V14.01,2013-04-15 15:52:00,
2013-04-15 11:57:00,52.5,32.3,30.44,South,180,0.0,6.0,46,0.00,,BKN250,0.00,VWS V14.01,2013-04-15 15:57:00,
2013-04-15 12:00:00,50.1,33.7,30.46,SE,140,1.0,5.0,53,0.00,,OVC150,0.00,VWS V14.01,2013-04-15 16:00:00,
2013-04-15 12:02:00,52.9,34.8,30.44,SSE,162,0.0,1.0,50,0.00,,BKN250,0.00,VWS V14.01,2013-04-15 16:02:00,
2013-04-15 12:07:00,53.6,35.4,30.44,East,90,0.0,2.0,50,0.00,,BKN250,0.00,VWS V14.01,2013-04-15 16:07:00,
2013-04-15 12:10:00,50.4,33.5,30.46,SE,138,0.0,4.0,52,0.00,,OVC150,0.00,VWS V14.01,2013-04-15 16:10:00,
2013-04-15 12:12:00,54.2,35.0,30.44,ESE,117,0.0,1.0,48,0.00,,BKN250,0.00,VWS V14.01,2013-04-15 16:12:00,
2013-04-15 12:17:00,54.8,34.4,30.44,NNW,327,1.0,3.0,46,0.00,,BKN250,0.00,VWS V14.01,2013-04-15 16:17:00,
2013-04-15 12:20:00,50.8,32.8,30.46,WNW,299,3.0,4.0,50,0.00,,OVC150,0.00,VWS V14.01,2013-04-15 16:20:00,
2013-04-15 12:22:00,54.5,32.5,30.44,WSW,246,1.0,5.0,43,0.00,,BKN250,0.00,VWS V14.01,2013-04-15 16:22:00,
2013-04-15 12:27:00,54.4,34.6,30.44,ESE,117,0.0,5.0,47,0.00,,BKN250,0.00,VWS V14.01,2013-04-15 16:27:00,
2013-04-15 12:30:00,51.3,32.8,30.45,SSW,205,2.0,5.0,49,0.00,,OVC150,0.00,VWS V14.01,2013-04-15 16:30:00,
2013-04-15 12:32:00,54.6,33.7,30.45,SW,229,1.0,7.0,45,0.00,,BKN250,0.00,VWS V14.01,2013-04-15 16:32:00,
2013-04-15 12:37:00,54.5,32.5,30.44,South,173,2.0,7.0,43,0.00,,BKN250,0.00,VWS V14.01,2013-04-15 16:37:00,
2013-04-15 12:40:00,51.6,34.6,30.45,East,92,6.0,7.0,52,0.00,,OVC150,0.00,VWS V14.01,2013-04-15 16:40:00,
2013-04-15 12:42:00,54.1,32.7,30.44,SE,142,0.0,2.0,44,0.00,,BKN250,0.00,VWS V14.01,2013-04-15 16:42:00,
2013-04-15 12:47:00,54.3,32.9,30.44,East,87,0.0,4.0,44,0.00,,BKN250,0.00,VWS V14.01,2013-04-15 16:47:00,
2013-04-15 12:50:00,52.2,33.6,30.45,East,90,2.0,6.0,49,0.00,,OVC150,0.00,VWS V14.01,2013-04-15 16:50:00,
2013-04-15 12:52:00,54.1,32.1,30.44,North,9,1.0,3.0,43,0.00,,BKN250,0.00,VWS V14.01,2013-04-15 16:52:00,
2013-04-15 12:57:00,54.1,32.1,30.43,SSW,202,3.0,6.0,43,0.00,,BKN250,0.00,VWS V14.01,2013-04-15 16:57:00,
2013-04-15 13:00:00,52.8,34.7,30.44,SSE,162,1.0,6.0,50,0.00,,OVC150,0.00,VWS V14.01,2013-04-15 17:00:00,
2013-04-15 13:02:00,54.2,34.4,30.43,WNW,292,0.0,3.0,47,0.00,,SCT250,0.00,VWS V14.01,2013-04-15 17:02:00,
2013-04-15 13:07:00,54.9,36.1,30.43,WNW,294,1.0,3.0,49,0.00,,SCT250,0.00,VWS V14.01,2013-04-15 17:07:00,
2013-04-15 13:10:00,54.2,35.5,30.44,ESE,118,0.0,4.0,49,0.00,,OVC150,0.00,VWS V14.01,2013-04-15 17:10:00,
2013-04-15 13:13:00,55.5,37.2,30.43,WNW,294,3.0,3.0,50,0.00,,SCT250,0.00,VWS V14.01,2013-04-15 17:13:00,
2013-04-15 13:18:00,55.7,34.7,30.43,WNW,291,1.0,3.0,45,0.00,,SCT250,0.00,VWS V14.01,2013-04-15 17:18:00,
2013-04-15 13:20:00,54.6,33.1,30.44,SE,124,4.0,6.0,44,0.00,,OVC150,0.00,VWS V14.01,2013-04-15 17:20:00,
2013-04-15 13:21:00,55.7,33.6,30.43,SSW,198,1.0,3.0,43,0.00,,SCT250,0.00,VWS V14.01,2013-04-15 17:21:00,
2013-04-15 13:24:00,55.3,34.9,30.43,SW,218,1.0,9.0,46,0.00,,SCT250,0.00,VWS V14.01,2013-04-15 17:24:00,
2013-04-15 13:29:00,55.2,35.9,30.43,SSE,163,2.0,9.0,48,0.00,,SCT250,0.00,VWS V14.01,2013-04-15 17:29:00,
2013-04-15 13:30:00,54.6,33.7,30.44,South,188,3.0,6.0,45,0.00,,OVC150,0.00,VWS V14.01,2013-04-15 17:30:00,
2013-04-15 13:34:00,55.1,33.6,30.43,ESE,123,4.0,7.0,44,0.00,,SCT250,0.00,VWS V14.01,2013-04-15 17:34:00,
2013-04-15 13:39:00,55.0,32.9,30.43,SW,226,2.0,7.0,43,0.00,,SCT250,0.00,VWS V14.01,2013-04-15 17:39:00,
2013-04-15 13:40:00,54.2,32.2,30.44,SE,142,1.0,7.0,43,0.00,,OVC150,0.00,VWS V14.01,2013-04-15 17:40:00,
2013-04-15 13:44:00,55.0,34.1,30.43,South,189,5.0,8.0,45,0.00,,SCT250,0.00,VWS V14.01,2013-04-15 17:44:00,
2013-04-15 13:49:00,54.9,34.5,30.43,SSE,162,4.0,8.0,46,0.00,,SCT250,0.00,VWS V14.01,2013-04-15 17:49:00,
2013-04-15 13:50:00,54.2,32.2,30.43,NE,35,3.0,6.0,43,0.00,,OVC150,0.00,VWS V14.01,2013-04-15 17:50:00,
2013-04-15 13:54:00,54.9,34.5,30.43,SSE,159,2.0,5.0,46,0.00,,SCT250,0.00,VWS V14.01,2013-04-15 17:54:00,
2013-04-15 13:59:00,54.9,33.4,30.42,SE,126,1.0,9.0,44,0.00,,SCT250,0.00,VWS V14.01,2013-04-15 17:59:00,
2013-04-15 14:00:00,54.2,35.0,30.43,ESE,110,1.0,6.0,48,0.00,,OVC150,0.00,VWS V14.01,2013-04-15 18:00:00,
2013-04-15 14:04:00,55.1,36.3,30.42,SE,140,1.0,4.0,49,0.00,,SCT250,0.00,VWS V14.01,2013-04-15 18:04:00,
2013-04-15 14:09:00,55.5,35.1,30.42,SE,140,1.0,4.0,46,0.00,,SCT250,0.00,VWS V14.01,2013-04-15 18:09:00,
2013-04-15 14:10:00,55.3,35.4,30.43,WNW,299,0.0,3.0,47,0.00,,OVC150,0.00,VWS V14.01,2013-04-15 18:10:00,
2013-04-15 14:14:00,55.5,34.0,30.42,SE,144,2.0,6.0,44,0.00,,SCT250,0.00,VWS V14.01,2013-04-15 18:14:00,
2013-04-15 14:19:00,55.5,33.4,30.42,South,178,0.0,7.0,43,0.00,,SCT250,0.00,VWS V14.01,2013-04-15 18:19:00,
2013-04-15 14:20:00,55.7,33.6,30.43,SSE,153,7.0,7.0,43,0.00,,OVC150,0.00,VWS V14.01,2013-04-15 18:20:00,
2013-04-15 14:24:00,55.5,33.4,30.42,SSE,165,4.0,7.0,43,0.00,,SCT250,0.00,VWS V14.01,2013-04-15 18:24:00,
2013-04-15 14:29:00,55.5,33.4,30.42,SSE,152,1.0,7.0,43,0.00,,SCT250,0.00,VWS V14.01,2013-04-15 18:29:00,
2013-04-15 14:30:00,55.1,35.2,30.43,SE,140,2.0,9.0,47,0.00,,OVC150,0.00,VWS V14.01,2013-04-15 18:30:00,
2013-04-15 14:34:00,55.3,34.3,30.42,South,190,7.0,7.0,45,0.00,,SCT250,0.00,VWS V14.01,2013-04-15 18:34:00,
2013-04-15 14:39:00,55.2,34.8,30.42,ESE,117,0.0,8.0,46,0.00,,SCT250,0.00,VWS V14.01,2013-04-15 18:39:00,
2013-04-15 14:40:00,54.9,33.4,30.43,SSE,159,1.0,7.0,44,0.00,,OVC150,0.00,VWS V14.01,2013-04-15 18:40:00,
2013-04-15 14:44:00,55.4,35.0,30.42,SE,124,0.0,4.0,46,0.00,,SCT250,0.00,VWS V14.01,2013-04-15 18:44:00,
2013-04-15 14:49:00,55.7,34.1,30.42,ESE,119,0.0,9.0,44,0.00,,SCT250,0.00,VWS V14.01,2013-04-15 18:49:00,
2013-04-15 14:50:00,54.9,32.8,30.43,SSE,162,1.0,8.0,43,0.00,,OVC150,0.00,VWS V14.01,2013-04-15 18:50:00,
2013-04-15 14:54:00,55.8,36.4,30.42,SSE,153,5.0,8.0,48,0.00,,SCT250,0.00,VWS V14.01,2013-04-15 18:54:00,
2013-04-15 14:59:00,55.6,36.2,30.42,SSE,168,2.0,9.0,48,0.00,,SCT250,0.00,VWS V14.01,2013-04-15 18:59:00,
2013-04-15 15:00:00,54.9,36.1,30.43,SE,141,2.0,9.0,49,0.00,,OVC150,0.00,VWS V14.01,2013-04-15 19:00:00,
2013-04-15 15:04:00,55.5,35.6,30.42,SSW,207,5.0,10.0,47,0.00,,SCT250,0.00,VWS V14.01,2013-04-15 19:04:00,
2013-04-15 15:09:00,55.3,35.4,30.42,SE,131,4.0,10.0,47,0.00,,SCT250,0.00,VWS V14.01,2013-04-15 19:09:00,
2013-04-15 15:10:00,55.6,34.6,30.42,SSW,196,6.0,7.0,45,0.00,,OVC150,0.00,VWS V14.01,2013-04-15 19:10:00,
2013-04-15 15:14:00,54.9,35.1,30.42,SSE,156,1.0,11.0,47,0.00,,SCT250,0.00,VWS V14.01,2013-04-15 19:14:00,
2013-04-15 15:19:00,54.4,34.6,30.42,SSE,151,2.0,11.0,47,0.00,,SCT250,0.00,VWS V14.01,2013-04-15 19:19:00,
2013-04-15 15:20:00,55.4,33.9,30.42,South,178,1.0,7.0,44,0.00,,OVC150,0.00,VWS V14.01,2013-04-15 19:20:00,
2013-04-15 15:24:00,54.0,35.8,30.42,SSE,161,2.0,8.0,50,0.00,,SCT250,0.00,VWS V14.01,2013-04-15 19:24:00,
2013-04-15 15:29:00,53.8,36.1,30.41,SSE,147,2.0,8.0,51,0.00,,SCT250,0.00,VWS V14.01,2013-04-15 19:29:00,
2013-04-15 15:30:00,55.4,33.3,30.42,South,188,1.0,8.0,43,0.00,,OVC150,0.00,VWS V14.01,2013-04-15 19:30:00,
2013-04-15 15:34:00,53.9,34.7,30.41,South,187,8.0,11.0,48,0.00,,SCT250,0.00,VWS V14.01,2013-04-15 19:34:00,
2013-04-15 15:39:00,54.0,34.8,30.41,SSE,153,4.0,11.0,48,0.00,,SCT250,0.00,VWS V14.01,2013-04-15 19:39:00,
2013-04-15 15:40:00,55.3,34.9,30.42,SE,124,0.0,8.0,46,0.00,,OVC150,0.00,VWS V14.01,2013-04-15 19:40:00,
2013-04-15 15:44:00,54.3,34.0,30.41,SSW,207,3.0,8.0,46,0.00,,SCT250,0.00,VWS V14.01,2013-04-15 19:44:00,
2013-04-15 15:49:00,54.4,35.1,30.41,South,175,1.0,8.0,48,0.00,,SCT250,0.00,VWS V14.01,2013-04-15 19:49:00,
2013-04-15 15:50:00,55.8,34.8,30.42,ESE,119,4.0,9.0,45,0.00,,OVC150,0.00,VWS V14.01,2013-04-15 19:50:00,
2013-04-15 15:55:00,55.0,36.7,30.41,SSE,159,5.0,7.0,50,0.00,,SCT250,0.00,VWS V14.01,2013-04-15 19:55:00,
2013-04-15 15:57:00,55.1,35.8,30.41,ESE,116,5.0,7.0,48,0.00,,SCT250,0.00,VWS V14.01,2013-04-15 19:57:00,
2013-04-15 16:00:00,55.5,34.0,30.42,SE,141,4.0,11.0,44,0.00,,OVC150,0.00,VWS V14.01,2013-04-15 20:00:00,
2013-04-15 16:02:00,55.0,35.2,30.41,South,184,6.0,8.0,47,0.00,,SCT250,0.00,VWS V14.01,2013-04-15 20:02:00,
2013-04-15 16:07:00,54.9,35.6,30.41,West,266,1.0,8.0,48,0.00,,SCT250,0.00,VWS V14.01,2013-04-15 20:07:00,
2013-04-15 16:10:00,55.1,35.2,30.42,WSW,245,0.0,10.0,47,0.00,,OVC150,0.00,VWS V14.01,2013-04-15 20:10:00,
2013-04-15 16:12:00,54.6,34.8,30.41,WSW,240,2.0,6.0,47,0.00,,SCT250,0.00,VWS V14.01,2013-04-15 20:12:00,
2013-04-15 16:17:00,54.0,34.2,30.41,SSE,159,7.0,11.0,47,0.00,,SCT250,0.00,VWS V14.01,2013-04-15 20:17:00,
2013-04-15 16:20:00,54.2,35.5,30.42,SSE,156,2.0,11.0,49,0.00,,OVC150,0.00,VWS V14.01,2013-04-15 20:20:00,
2013-04-15 16:22:00,53.3,34.7,30.40,ESE,123,5.0,13.0,49,0.00,,SCT250,0.00,VWS V14.01,2013-04-15 20:22:00,
2013-04-15 16:27:00,52.6,34.5,30.40,South,190,3.0,13.0,50,0.00,,SCT250,0.00,VWS V14.01,2013-04-15 20:27:00,
2013-04-15 16:30:00,53.8,35.1,30.41,South,171,2.0,8.0,49,0.00,,OVC150,0.00,VWS V14.01,2013-04-15 20:30:00,
2013-04-15 16:32:00,52.2,34.1,30.40,SW,228,5.0,8.0,50,0.00,,SCT250,0.00,VWS V14.01,2013-04-15 20:32:00,
2013-04-15 16:37:00,51.9,34.4,30.40,SSW,197,3.0,10.0,51,0.00,,SCT250,0.00,VWS V14.01,2013-04-15 20:37:00,
2013-04-15 16:40:00,54.1,34.3,30.41,SE,136,2.0,11.0,47,0.00,,OVC150,0.00,VWS V14.01,2013-04-15 20:40:00,
2013-04-15 16:42:00,51.8,34.3,30.41,South,169,6.0,6.0,51,0.00,,SCT250,0.00,VWS V14.01,2013-04-15 20:42:00,
2013-04-15 16:47:00,51.6,34.1,30.40,South,191,3.0,12.0,51,0.00,,SCT250,0.00,VWS V14.01,2013-04-15 20:47:00,
2013-04-15 16:50:00,54.5,35.8,30.41,SE,132,5.0,8.0,49,0.00,,OVC150,0.00,VWS V14.01,2013-04-15 20:50:00,
2013-04-15 16:52:00,51.6,35.0,30.40,SE,142,6.0,8.0,53,0.00,,SCT250,0.00,VWS V14.01,2013-04-15 20:52:00,
2013-04-15 16:57:00,51.6,34.6,30.40,South,180,3.0,9.0,52,0.00,,SCT250,0.00,VWS V14.01,2013-04-15 20:57:00,
2013-04-15 17:00:00,55.1,35.2,30.41,SSE,167,5.0,8.0,47,0.00,,OVC150,0.00,VWS V14.01,2013-04-15 21:00:00,
2013-04-15 17:02:00,51.7,34.2,30.40,South,177,6.0,11.0,51,0.00,,SCT250,0.00,VWS V14.01,2013-04-15 21:02:00,
2013-04-15 17:07:00,51.7,35.1,30.40,SE,128,5.0,12.0,53,0.00,,SCT250,0.00,VWS V14.01,2013-04-15 21:07:00,
2013-04-15 17:10:00,54.8,36.5,30.41,SE,144,0.0,8.0,50,0.00,,OVC150,0.00,VWS V14.01,2013-04-15 21:10:00,
2013-04-15 17:12:00,51.8,35.2,30.40,SE,141,5.0,7.0,53,0.00,,SCT250,0.00,VWS V14.01,2013-04-15 21:12:00,
2013-04-15 17:17:00,51.9,36.3,30.40,SE,126,4.0,10.0,55,0.00,,SCT250,0.00,VWS V14.01,2013-04-15 21:17:00,
2013-04-15 17:20:00,53.5,34.8,30.41,SSE,155,7.0,11.0,49,0.00,,OVC150,0.00,VWS V14.01,2013-04-15 21:20:00,
2013-04-15 17:22:00,52.1,35.5,30.40,SE,126,5.0,6.0,53,0.00,,SCT250,0.00,VWS V14.01,2013-04-15 21:22:00,
2013-04-15 17:27:00,52.3,35.2,30.40,SSW,193,11.0,11.0,52,0.00,,SCT250,0.00,VWS V14.01,2013-04-15 21:27:00,
2013-04-15 17:30:00,52.3,34.2,30.41,SSE,155,7.0,13.0,50,0.00,,OVC150,0.00,VWS V14.01,2013-04-15 21:30:00,
2013-04-15 17:32:00,52.4,36.7,30.40,SSE,147,4.0,5.0,55,0.00,,SCT250,0.00,VWS V14.01,2013-04-15 21:32:00,
2013-04-15 17:37:00,52.6,36.0,30.41,South,190,4.0,10.0,53,0.00,,SCT250,0.00,VWS V14.01,2013-04-15 21:37:00,
2013-04-15 17:40:00,51.8,34.3,30.40,South,169,6.0,10.0,51,0.00,,OVC150,0.00,VWS V14.01,2013-04-15 21:40:00,
2013-04-15 17:42:00,52.4,35.8,30.41,SSE,158,5.0,7.0,53,0.00,,SCT250,0.00,VWS V14.01,2013-04-15 21:42:00,
2013-04-15 17:47:00,52.0,34.9,30.41,SSE,147,5.0,11.0,52,0.00,,SCT250,0.00,VWS V14.01,2013-04-15 21:47:00,
2013-04-15 17:50:00,51.6,35.0,30.40,ESE,122,5.0,12.0,53,0.00,,OVC150,0.00,VWS V14.01,2013-04-15 21:50:00,
2013-04-15 17:52:00,51.9,35.8,30.41,SSE,159,1.0,4.0,54,0.00,,SCT250,0.00,VWS V14.01,2013-04-15 21:52:00,
2013-04-15 17:57:00,51.8,34.8,30.41,South,180,5.0,11.0,52,0.00,,SCT250,0.00,VWS V14.01,2013-04-15 21:57:00,
2013-04-15 18:00:00,51.7,33.7,30.40,South,170,4.0,9.0,50,0.00,,OVC150,0.00,VWS V14.01,2013-04-15 22:00:00,
2013-04-15 18:02:00,51.6,34.6,30.41,SE,132,4.0,6.0,52,0.00,,SCT055,0.00,VWS V14.01,2013-04-15 22:02:00,
2013-04-15 18:07:00,51.3,35.2,30.42,SW,218,2.0,7.0,54,0.00,,SCT055,0.00,VWS V14.01,2013-04-15 22:07:00,
2013-04-15 18:10:00,51.8,35.2,30.40,SE,136,2.0,12.0,53,0.00,,OVC150,0.00,VWS V14.01,2013-04-15 22:10:00,
2013-04-15 18:12:00,51.0,35.4,30.42,SE,142,2.0,6.0,55,0.00,,SCT055,0.00,VWS V14.01,2013-04-15 22:12:00,
2013-04-15 18:17:00,50.8,35.7,30.42,South,175,2.0,8.0,56,0.00,,SCT055,0.00,VWS V14.01,2013-04-15 22:17:00,
2013-04-15 18:20:00,52.1,36.0,30.40,SE,124,4.0,10.0,54,0.00,,OVC150,0.00,VWS V14.01,2013-04-15 22:20:00,
2013-04-15 18:22:00,50.4,36.2,30.42,South,173,6.0,7.0,58,0.00,,SCT055,0.00,VWS V14.01,2013-04-15 22:22:00,
2013-04-15 18:27:00,50.2,36.0,30.42,SE,132,4.0,9.0,58,0.00,,SCT055,0.00,VWS V14.01,2013-04-15 22:27:00,
2013-04-15 18:30:00,52.3,36.2,30.40,SE,138,1.0,11.0,54,0.00,,OVC150,0.00,VWS V14.01,2013-04-15 22:30:00,
2013-04-15 18:32:00,50.0,35.8,30.42,SE,126,5.0,6.0,58,0.00,,SCT055,0.00,VWS V14.01,2013-04-15 22:32:00,
2013-04-15 18:37:00,49.8,36.1,30.42,SE,132,6.0,8.0,59,0.00,,SCT055,0.00,VWS V14.01,2013-04-15 22:37:00,
2013-04-15 18:40:00,52.4,35.8,30.41,South,175,5.0,10.0,53,0.00,,OVC150,0.00,VWS V14.01,2013-04-15 22:40:00,
2013-04-15 18:42:00,49.6,35.5,30.42,SE,127,5.0,6.0,58,0.00,,SCT055,0.00,VWS V14.01,2013-04-15 22:42:00,
2013-04-15 18:47:00,49.3,36.0,30.42,SSE,164,8.0,9.0,60,0.00,,SCT055,0.00,VWS V14.01,2013-04-15 22:47:00,
2013-04-15 18:50:00,51.9,35.3,30.41,SSE,162,0.0,11.0,53,0.00,,OVC150,0.00,VWS V14.01,2013-04-15 22:50:00,
2013-04-15 18:52:00,49.0,35.7,30.43,South,184,1.0,9.0,60,0.00,,SCT055,0.00,VWS V14.01,2013-04-15 22:52:00,
2013-04-15 18:57:00,48.7,36.3,30.43,SSE,149,6.0,10.0,62,0.00,,SCT055,0.00,VWS V14.01,2013-04-15 22:57:00,
2013-04-15 19:00:00,51.6,34.6,30.41,SE,144,5.0,11.0,52,0.00,,OVC150,0.00,VWS V14.01,2013-04-15 23:00:00,
2013-04-15 19:02:00,48.5,36.5,30.43,SSE,165,2.0,4.0,63,0.00,,SCT060,0.00,VWS V14.01,2013-04-15 23:02:00,
2013-04-15 19:07:00,48.3,36.3,30.44,South,175,4.0,6.0,63,0.00,,SCT060,0.00,VWS V14.01,2013-04-15 23:07:00,
2013-04-15 19:10:00,51.1,35.5,30.42,ESE,117,6.0,7.0,55,0.00,,OVC150,0.00,VWS V14.01,2013-04-15 23:10:00,
2013-04-15 19:12:00,48.1,36.5,30.44,South,174,2.0,6.0,64,0.00,,SCT060,0.00,VWS V14.01,2013-04-15 23:12:00,
2013-04-15 19:17:00,47.9,36.3,30.44,South,180,1.0,8.0,64,0.00,,SCT060,0.00,VWS V14.01,2013-04-15 23:17:00,
2013-04-15 19:20:00,50.5,35.8,30.42,SE,136,7.0,12.0,57,0.00,,OVC150,0.00,VWS V14.01,2013-04-15 23:20:00,
2013-04-15 19:22:00,47.7,36.5,30.44,SE,136,2.0,4.0,65,0.00,,SCT060,0.00,VWS V14.01,2013-04-15 23:22:00,
2013-04-15 19:27:00,47.5,35.9,30.45,SSE,153,2.0,7.0,64,0.00,,SCT060,0.00,VWS V14.01,2013-04-15 23:27:00,
2013-04-15 19:30:00,50.0,35.8,30.42,SSE,158,2.0,10.0,58,0.00,,OVC150,0.00,VWS V14.01,2013-04-15 23:30:00,
2013-04-15 19:32:00,47.4,36.2,30.45,SSE,155,2.0,4.0,65,0.00,,SCT060,0.00,VWS V14.01,2013-04-15 23:32:00,
2013-04-15 19:37:00,47.2,36.4,30.45,SSE,155,4.0,4.0,66,0.00,,SCT060,0.00,VWS V14.01,2013-04-15 23:37:00,
2013-04-15 19:40:00,49.6,35.9,30.42,South,179,6.0,8.0,59,0.00,,OVC150,0.00,VWS V14.01,2013-04-15 23:40:00,
2013-04-15 19:42:00,47.0,36.6,30.45,SSE,166,2.0,2.0,67,0.00,,SCT060,0.00,VWS V14.01,2013-04-15 23:42:00,
2013-04-15 19:47:00,46.9,36.5,30.45,SSE,155,1.0,4.0,67,0.00,,SCT060,0.00,VWS V14.01,2013-04-15 23:47:00,
2013-04-15 19:50:00,49.1,35.8,30.43,South,179,6.0,9.0,60,0.00,,OVC150,0.00,VWS V14.01,2013-04-15 23:50:00,
2013-04-15 19:52:00,46.8,36.4,30.46,SSE,152,2.0,4.0,67,0.00,,SCT060,0.00,VWS V14.01,2013-04-15 23:52:00,
2013-04-15 19:57:00,46.7,36.7,30.46,SSE,159,0.0,4.0,68,0.00,,SCT060,0.00,VWS V14.01,2013-04-15 23:57:00,
2013-04-15 20:00:00,48.5,36.5,30.43,South,169,0.0,10.0,63,0.00,,OVC150,0.00,VWS V14.01,2013-04-16 00:00:00,
2013-04-15 20:02:00,46.6,36.2,30.47,SSE,155,0.0,4.0,67,0.00,,SCT080,0.00,VWS V14.01,2013-04-16 00:02:00,
2013-04-15 20:07:00,46.5,36.2,30.46,ESE,118,2.0,6.0,67,0.00,,SCT080,0.00,VWS V14.01,2013-04-16 00:07:00,
2013-04-15 20:10:00,48.1,36.1,30.44,South,182,3.0,8.0,63,0.00,,OVC150,0.00,VWS V14.01,2013-04-16 00:10:00,
2013-04-15 20:12:00,46.5,36.2,30.46,SSE,157,4.0,4.0,67,0.00,,SCT080,0.00,VWS V14.01,2013-04-16 00:12:00,
2013-04-15 20:17:00,46.3,36.0,30.46,SSE,164,4.0,5.0,67,0.00,,SCT080,0.00,VWS V14.01,2013-04-16 00:17:00,
2013-04-15 20:20:00,47.7,36.1,30.44,South,170,4.0,8.0,64,0.00,,OVC150,0.00,VWS V14.01,2013-04-16 00:20:00,
2013-04-15 20:22:00,46.3,36.7,30.46,South,186,1.0,1.0,69,0.00,,SCT080,0.00,VWS V14.01,2013-04-16 00:22:00,
2013-04-15 20:27:00,46.1,36.9,30.46,SSE,165,4.0,4.0,70,0.00,,SCT080,0.00,VWS V14.01,2013-04-16 00:27:00,
2013-04-15 20:30:00,47.4,36.2,30.45,SSE,157,1.0,7.0,65,0.00,,OVC150,0.00,VWS V14.01,2013-04-16 00:30:00,
2013-04-15 20:32:00,46.0,37.5,30.46,South,172,2.0,2.0,72,0.00,,SCT080,0.00,VWS V14.01,2013-04-16 00:32:00,
2013-04-15 20:37:00,45.9,37.8,30.46,SSE,163,1.0,6.0,73,0.00,,SCT080,0.00,VWS V14.01,2013-04-16 00:37:00,
2013-04-15 20:40:00,47.0,36.2,30.45,SSE,166,2.0,5.0,66,0.00,,OVC150,0.00,VWS V14.01,2013-04-16 00:40:00,
2013-04-15 20:42:00,45.8,38.0,30.46,South,178,5.0,6.0,74,0.00,,SCT080,0.00,VWS V14.01,2013-04-16 00:42:00,
2013-04-15 20:47:00,45.7,37.9,30.45,South,186,5.0,6.0,74,0.00,,SCT080,0.00,VWS V14.01,2013-04-16 00:47:00,
2013-04-15 20:50:00,46.8,36.4,30.46,SE,144,0.0,5.0,67,0.00,,OVC150,0.00,VWS V14.01,2013-04-16 00:50:00,
2013-04-15 20:52:00,45.6,38.2,30.45,South,169,7.0,7.0,75,0.00,,SCT080,0.00,VWS V14.01,2013-04-16 00:52:00,
2013-04-15 20:57:00,45.4,38.3,30.45,SSE,165,0.0,7.0,76,0.00,,SCT080,0.00,VWS V14.01,2013-04-16 00:57:00,
2013-04-15 21:00:00,46.6,36.2,30.47,SSE,155,4.0,6.0,67,0.00,,OVC150,0.00,VWS V14.01,2013-04-16 01:00:00,
2013-04-15 21:02:00,45.3,38.5,30.46,ESE,123,0.0,5.0,77,0.00,,CLR,0.00,VWS V14.01,2013-04-16 01:02:00,
2013-04-15 21:07:00,45.2,38.4,30.46,SSE,165,0.0,5.0,77,0.00,,CLR,0.00,VWS V14.01,2013-04-16 01:07:00,
2013-04-15 21:10:00,46.5,35.8,30.46,SSE,163,0.0,6.0,66,0.00,,OVC150,0.00,VWS V14.01,2013-04-16 01:10:00,
2013-04-15 21:12:00,45.0,38.2,30.46,SSE,148,0.0,4.0,77,0.00,,CLR,0.00,VWS V14.01,2013-04-16 01:12:00,
2013-04-15 21:17:00,44.9,38.5,30.46,SSE,153,2.0,5.0,78,0.00,,CLR,0.00,VWS V14.01,2013-04-16 01:17:00,
2013-04-15 21:20:00,46.3,36.3,30.46,South,186,0.0,8.0,68,0.00,,OVC150,0.00,VWS V14.01,2013-04-16 01:20:00,
2013-04-15 21:22:00,44.8,38.4,30.46,South,182,3.0,4.0,78,0.00,,CLR,0.00,VWS V14.01,2013-04-16 01:22:00,
2013-04-15 21:27:00,44.8,38.7,30.47,South,179,0.0,4.0,79,0.00,,CLR,0.00,VWS V14.01,2013-04-16 01:27:00,
2013-04-15 21:30:00,46.0,37.5,30.46,South,172,1.0,6.0,72,0.00,,OVC150,0.00,VWS V14.01,2013-04-16 01:30:00,
2013-04-15 21:32:00,44.7,38.6,30.47,SSE,165,1.0,2.0,79,0.00,,CLR,0.00,VWS V14.01,2013-04-16 01:32:00,
2013-04-15 21:37:00,44.6,38.5,30.48,SSE,157,0.0,6.0,79,0.00,,CLR,0.00,VWS V14.01,2013-04-16 01:37:00,
2013-04-15 21:40:00,45.8,37.7,30.46,South,181,2.0,7.0,73,0.00,,OVC150,0.00,VWS V14.01,2013-04-16 01:40:00,
2013-04-15 21:42:00,44.5,38.7,30.48,SSE,157,0.0,0.0,80,0.00,,CLR,0.00,VWS V14.01,2013-04-16 01:42:00,
2013-04-15 21:47:00,44.4,38.6,30.48,SSE,157,4.0,5.0,80,0.00,,CLR,0.00,VWS V14.01,2013-04-16 01:47:00,
2013-04-15 21:50:00,45.6,38.2,30.45,SSE,163,0.0,6.0,75,0.00,,OVC150,0.00,VWS V14.01,2013-04-16 01:50:00,
2013-04-15 21:52:00,44.3,38.8,30.48,SSE,161,0.0,0.0,81,0.00,,CLR,0.00,VWS V14.01,2013-04-16 01:52:00,
2013-04-15 21:57:00,44.2,39.1,30.48,ESE,122,4.0,4.0,82,0.00,,CLR,0.00,VWS V14.01,2013-04-16 01:57:00,
2013-04-15 22:00:00,45.4,38.6,30.46,South,190,2.0,7.0,77,0.00,,OVC150,0.00,VWS V14.01,2013-04-16 02:00:00,
2013-04-15 22:02:00,44.2,38.8,30.48,SE,126,0.0,2.0,81,0.00,,FEW050,0.00,VWS V14.01,2013-04-16 02:02:00,
2013-04-15 22:07:00,44.0,38.5,30.48,SE,127,2.0,5.0,81,0.00,,FEW050,0.00,VWS V14.01,2013-04-16 02:07:00,
2013-04-15 22:10:00,45.1,38.3,30.46,SSE,148,2.0,5.0,77,0.00,,OVC150,0.00,VWS V14.01,2013-04-16 02:10:00,
2013-04-15 22:12:00,43.9,38.5,30.48,SSE,148,0.0,4.0,81,0.00,,FEW050,0.00,VWS V14.01,2013-04-16 02:12:00,
2013-04-15 22:17:00,43.7,38.6,30.48,SSE,148,0.0,4.0,82,0.00,,FEW050,0.00,VWS V14.01,2013-04-16 02:17:00,
2013-04-15 22:20:00,44.8,38.7,30.46,South,182,2.0,8.0,79,0.00,,OVC150,0.00,VWS V14.01,2013-04-16 02:20:00,
2013-04-15 22:22:00,43.6,38.5,30.48,SSE,148,0.0,1.0,82,0.00,,FEW050,0.00,VWS V14.01,2013-04-16 02:22:00,
2013-04-15 22:27:00,43.5,38.4,30.48,SSE,148,0.0,2.0,82,0.00,,FEW050,0.00,VWS V14.01,2013-04-16 02:27:00,
2013-04-15 22:30:00,44.7,38.6,30.47,SSE,165,2.0,6.0,79,0.00,,OVC150,0.00,VWS V14.01,2013-04-16 02:30:00,
2013-04-15 22:32:00,43.4,38.3,30.48,SSE,148,0.0,0.0,82,0.00,,FEW050,0.00,VWS V14.01,2013-04-16 02:32:00,
2013-04-15 22:37:00,43.3,38.2,30.48,SSE,148,0.0,2.0,82,0.00,,FEW050,0.00,VWS V14.01,2013-04-16 02:37:00,
2013-04-15 22:40:00,44.5,38.7,30.48,SSE,157,0.0,6.0,80,0.00,,OVC150,0.00,VWS V14.01,2013-04-16 02:40:00,
2013-04-15 22:42:00,43.3,38.5,30.47,SSE,148,0.0,2.0,83,0.00,,FEW050,0.00,VWS V14.01,2013-04-16 02:42:00,
2013-04-15 22:47:00,43.3,38.5,30.47,SSE,148,0.0,2.0,83,0.00,,BKN015,0.00,VWS V14.01,2013-04-16 02:47:00,
2013-04-15 22:50:00,44.3,38.8,30.48,SSE,161,0.0,5.0,81,0.00,,OVC150,0.00,VWS V14.01,2013-04-16 02:50:00,
2013-04-15 22:52:00,43.2,38.4,30.48,SSE,148,0.0,0.0,83,0.00,,BKN015,0.00,VWS V14.01,2013-04-16 02:52:00,
2013-04-15 22:57:00,43.1,38.3,30.48,SSE,148,0.0,0.0,83,0.00,,BKN015,0.00,VWS V14.01,2013-04-16 02:57:00,
2013-04-15 23:00:00,44.2,38.8,30.48,SE,126,0.0,5.0,81,0.00,,OVC150,0.00,VWS V14.01,2013-04-16 03:00:00,
2013-04-15 23:02:00,42.9,38.1,30.48,SSE,148,0.0,0.0,83,0.00,,BKN015,0.00,VWS V14.01,2013-04-16 03:02:00,
2013-04-15 23:07:00,42.7,38.2,30.48,SSE,148,0.0,2.0,84,0.00,,BKN015,0.00,VWS V14.01,2013-04-16 03:07:00,
2013-04-15 23:10:00,43.9,38.5,30.48,SSE,148,4.0,5.0,81,0.00,,OVC150,0.00,VWS V14.01,2013-04-16 03:10:00,
2013-04-15 23:12:00,42.5,38.0,30.48,East,101,0.0,0.0,84,0.00,,BKN015,0.00,VWS V14.01,2013-04-16 03:12:00,
2013-04-15 23:17:00,42.4,37.9,30.48,East,101,0.0,1.0,84,0.00,,BKN015,0.00,VWS V14.01,2013-04-16 03:17:00,
2013-04-15 23:20:00,43.6,38.5,30.48,SSE,148,0.0,4.0,82,0.00,,OVC150,0.00,VWS V14.01,2013-04-16 03:20:00,
2013-04-15 23:22:00,42.3,38.1,30.48,East,101,0.0,1.0,85,0.00,,BKN015,0.00,VWS V14.01,2013-04-16 03:22:00,
2013-04-15 23:27:00,42.4,38.5,30.48,South,182,0.0,5.0,86,0.00,,BKN015,0.00,VWS V14.01,2013-04-16 03:27:00,
2013-04-15 23:30:00,43.4,38.3,30.48,SSE,148,0.0,4.0,82,0.00,,OVC150,0.00,VWS V14.01,2013-04-16 03:30:00,
2013-04-15 23:32:00,42.5,38.6,30.48,South,182,0.0,0.0,86,0.00,,BKN015,0.00,VWS V14.01,2013-04-16 03:32:00,
2013-04-15 23:37:00,42.5,38.6,30.48,South,180,0.0,3.0,86,0.00,,BKN015,0.00,VWS V14.01,2013-04-16 03:37:00,
2013-04-15 23:40:00,43.3,38.5,30.47,SSE,148,1.0,4.0,83,0.00,,OVC150,0.00,VWS V14.01,2013-04-16 03:40:00,
2013-04-15 23:42:00,42.5,38.6,30.48,South,183,0.0,1.0,86,0.00,,BKN015,0.00,VWS V14.01,2013-04-16 03:42:00,
2013-04-15 23:47:00,42.6,38.7,30.48,South,183,0.0,1.0,86,0.00,,BKN015,0.00,VWS V14.01,2013-04-16 03:47:00,
2013-04-15 23:50:00,43.2,38.4,30.48,SSE,148,0.0,2.0,83,0.00,,OVC150,0.00,VWS V14.01,2013-04-16 03:50:00,
2013-04-15 23:52:00,42.6,38.7,30.48,South,183,0.0,0.0,86,0.00,,BKN015,0.00,VWS V14.01,2013-04-16 03:52:00,
2013-04-15 23:57:00,42.5,38.6,30.48,South,183,1.0,1.0,86,0.00,,BKN015,0.00,VWS V14.01,2013-04-16 03:57:00,